Regional Weather Roundup
Issued by NWS

Home | Current Version | Previous Version | Graphics & Text | Print | Product List | Glossary On
Versions: 1 2 3 4 5 6 7 8 9 10 11 12 13 14 15 16 17 18 19 20 21 22 23 24 25 26 27 28 29 30 31 32 33 34 35 36 37 38 39 40 41 42 43 44 45 46 47 48 49 50
000
ASUS45 KCYS 011110
RWRWY

WYOMING REGIONAL WEATHER ROUNDUP
NATIONAL WEATHER SERVICE CHEYENNE WY
400 AM MST SUN FEB 01 2015

NOTE:  "FAIR" INDICATES FEW OR NO CLOUDS BELOW 12,000 FEET
WITH NO SIGNIFICANT WEATHER AND/OR OBSTRUCTIONS TO VISIBILITY.

WYZ001-011200-
YELLOWSTONE NATIONAL PARK

CITY           SKY/WX    TMP DP  RH WIND       PRES   REMARKS
LK YELLOWSTONE   N/A      2  -2  83 CALM      30.12S
W YELLOWSTONE  NOT AVBL

$$
WYZ002>013-054>058-071-098>099-011200-
NORTHERN WYOMING

CITY           SKY/WX    TMP DP  RH WIND       PRES   REMARKS
JACKSON        FAIR       1   0  92 N5        30.15S WCI  -8
CODY           CLOUDY    10  10 100 NE8       30.20S WCI  -1
GREYBULL       MOCLDY    15   7  70 NW10      30.25R WCI   2
WORLAND        FLURRIES  16  10  77 N12       30.23R WCI   3
SHERIDAN       CLOUDY    10   3  73 NW17      30.30S WCI  -8
BUFFALO        LGT SNOW   8   5  87 N21G30    30.19R FOG     WCI -12
GILLETTE       CLOUDY     6   3  87 N14       30.22R WCI -11
HULETT           N/A    N/A N/A N/A MISG        N/A
NEWCASTLE      CLOUDY    10   5  79 NW17G24   30.17R WCI  -7

$$
WYZ014>020-022>026-101>103-011200-
CENTRAL WYOMING

CITY           SKY/WX    TMP DP  RH WIND       PRES   REMARKS
BIG PINEY      FAIR      12   5  73 N3        30.09R
PINEDALE       FAIR       9   3  78 NW12      30.08R WCI  -6
DUBOIS         FAIR      19   9  63 W23       30.03F WCI   2
LANDER         CLOUDY    22  19  89 N6        30.11R WCI  14
RIVERTON       CLOUDY    22  15  75 NE7       30.13R WCI  13
CASPER         CLOUDY    13   7  77 NE7       30.15R WCI   3
DOUGLAS        CLOUDY    16   8  71 NW16      30.15R WCI   1

$$
WYZ021-027>030-104>119-011200-
SOUTHERN WYOMING

CITY           SKY/WX    TMP DP  RH WIND       PRES   REMARKS
EVANSTON       FAIR      22  18  85 SW12      30.11F WCI  10
FORT BRIDGER   FAIR      25  15  67 W8        30.12S WCI  16
ROCK SPRINGS   MOCLDY    20  12  71 W10       30.08S WCI   9
DIXON          FAIR      18  15  90 CALM      30.10S
RAWLINS        CLOUDY    20  14  77 NW9       30.06S WCI   9
SARATOGA       FAIR      19  16  86 NW6       30.06R WCI  11
LARAMIE        CLOUDY    15  12  88 N12       29.99S WCI   2
CHEYENNE       CLOUDY    16  12  84 N17       30.01R WCI   0
TORRINGTON     CLOUDY    20  11  68 N16G26    30.12S WCI   6
PINE BLUFFS    CLOUDY    21  16  79 N18       30.06R WCI   6

$$


USA.gov is the U.S. government's official web portal to all federal, state and local government web resources and services.